sat.trackr.live / text

‹ back to catalog

STARLINK-30212

NORAD 57506 · 2023-113M

PAYLOAD ACTIVE UNKNOWN

§ Identity

Operator
Country
US
Launch date
2023-08-07
Launch site
AFETR
Launch vehicle
Mass (kg)
RCS (m²)

Purposes: comms

External: N2YO · Heavens-Above · Gunter

§ Orbital elements

Epoch: 2026-09-20T13:30:49.621248Z

Period
94.27 min
Inclination
43.0050°
Eccentricity
0.0001521
Mean motion
15.27579115 rev/d
Perigee alt
482.0 km
Apogee alt
484.1 km
Semi-major
6,861.2 km
B*
1.6327e-6
RAAN
355.9397°
Arg perigee
270.5144°
Mean anomaly
89.5534°
Rev number
17,331

§ Raw data

STARLINK-302121 57506U 23113M   26263.56307432 -.00000217  00000+0  16327-5 0  99962 57506  43.0050 355.9397 0001521 270.5144  89.5534 15.27579115173312

JSON: /api/v1/satellites/57506 · /tle

For live sub-satellite position, see the globe view (requires WebGL).

§ Visibility from observer

Set your observer location to see the next 7 days of passes ≥ 10°. The values pass through the URL so the page stays shareable.

No JS? Fill the form by hand. The geolocation button needs JavaScript.